x

West Santa Barbara 38 Nm West Of Santa Barbara, Ca (46054) Wave Buoy

4:50 - Tue 30th Aug 2016 All times are PDT. -7 hours from GMT.

  • Sig Wave height 7.9ft
  • Swell Direction
  • Peak Period 7s
  • Average Period 6s
  • Wind
    29mph, 34mph gusts
  • Sea Temp 58°f
  • Ar Temp 62°f
  • Sea Pressure 1009.5mb
  • West Santa Barbara  38 Nm West Of Santa Barbara, Ca
  • West Santa Barbara  38 Nm West Of Santa Barbara, Ca

More Historic Weather Station data

Upgrade to MSW Pro to gain access to the past 30 days of data for over 8000 Wavebouys and Weather Stations around the globe.

Join Pro

Comparision Forecast

View Surf forecast
   
Ter 08/30 4:50 8ft 7s 6s 29 34 mph 1009.5mb 58f 62f
3:50 7ft 7s 6s 29 34 mph 1009.7mb 58f 62f
2:50 7ft 8s 6s 27 34 mph 1010.2mb 59f 62f
1:50 7ft 8s 6s 27 31 mph 1010.8mb 59f 62f
12:50 6.5ft 7s 6s 22 27 mph 1011.4mb 60f 61f
11:50 7ft 8s 6s 20 22 mph 1012mb 59f 61f
10:50 6ft 8s 6s 20 25 mph 1012.2mb 58f 60f
9:50 6.5ft 8s 6s 18 22 mph 1012.1mb 57f 60f
8:50 6.5ft 8s 6s 20 25 mph 1011.8mb 57f 60f
7:50 7ft 8s 6s 25 29 mph 1011.1mb 57f 60f
6:50 7ft 7s 6s 27 31 mph 1010.8mb 57f 60f
5:50 7ft 7s 6s 27 34 mph 1010.7mb 57f 59f
4:50 7ft 8s 6s 27 31 mph 1010.9mb 57f 60f
3:50 8ft 8s 6s 27 31 mph 1010.7mb 58f 60f
2:50 8ft 8s 6s 29 34 mph 1011mb 59f 60f
1:50 8.5ft 8s 6s 29 34 mph 1011.4mb 59f 60f
12:50 8ft 8s 6s 29 34 mph 1011.5mb 58f 60f
Seg 08/29 11:50 8ft 8s 6s 29 36 mph 1011.8mb 58f 60f
10:50 7ft 7s 6s 29 34 mph 1012.3mb 58f 61f
9:50 7.5ft 8s 6s 29 34 mph 1012.4mb 58f 61f
8:50 7.5ft 8s 6s 31 38 mph 1011.8mb 58f 61f
7:50 7.5ft 8s 6s 29 34 mph 1011.6mb 58f 61f
6:50 6.5ft 8s 5s 29 34 mph 1011.3mb 58f 61f
5:50 7ft 7s 5s 27 34 mph 1011.7mb 58f 61f
4:50 7ft 8s 6s 27 34 mph 1011.8mb 58f 60f
3:50 7ft 8s 6s 29 36 mph 1012.4mb 58f 60f
2:50 7ft 7s  -  25 29 mph 1013.4mb 58f 60f
1:50 7.5ft 7s 6s 25 31 mph 1014.2mb 58f 60f
12:50 7ft 7s 6s 27 34 mph 1014.6mb 58f 59f
11:50 6.5ft 6s 5s 29 34 mph 1015mb 58f 59f
10:50 6ft 6s 5s 29 36 mph 1015.4mb 58f 59f
9:50 6ft 6s 5s 29 38 mph 1015.5mb 58f 59f
8:50 5ft 6s 5s 29 36 mph 1015.4mb 58f 59f
7:50 5ft 6s 5s 29 34 mph 1015.3mb 58f 59f
6:50 5ft 6s 5s 27 36 mph 1014.9mb 58f 59f
5:50 5.5ft 6s 5s 27 31 mph 1014.2mb 58f 59f
4:50 5.5ft 6s 5s 29 34 mph 1014.2mb 58f 59f
3:50 5.5ft 6s 5s 27 34 mph 1014.5mb 58f 60f
2:50 6ft 6s 5s 29 34 mph 1014.7mb 59f 60f
1:50 5ft 6s 5s 29 34 mph 1014.8mb 59f 60f
12:50 6.5ft 6s 5s 29 36 mph 1015.1mb 60f 60f
Dom 08/28 11:50 6ft 6s 5s 29 36 mph 1015.3mb 60f 61f
10:50 6ft 6s 5s 29 34 mph 1015.6mb 60f 61f
9:50 6ft 6s 5s 27 34 mph 1015.5mb 60f 61f
8:50 6ft 6s 5s 27 34 mph 1015.6mb 59f 61f
7:50 5ft 5s 5s 27 31 mph 1015.1mb 59f 61f
6:50 5ft 5s 5s 27 34 mph 1014.9mb 59f 61f
5:50 5ft 5s 5s 27 34 mph 1014.9mb 59f 61f
4:50 5ft 5s 5s 27 31 mph 1015.2mb 59f 61f
3:50 5ft 5s 5s 27 31 mph 1015.5mb 59f 61f
2:50 5ft 5s 5s 27 31 mph 1016.2mb 59f 61f
1:50 4.5ft 5s 5s 22 29 mph 1016.9mb 59f 61f
12:50 5ft 5s 5s 22 27 mph 1017mb 59f 61f
11:50 5ft 10s 5s 22 27 mph 1017.4mb 59f 61f
10:50 4.5ft 10s 5s 22 27 mph 1017.7mb 60f 61f
9:50 4ft 10s 5s 22 27 mph 1017.8mb 60f 61f
8:50 3.5ft 10s 5s 20 25 mph 1017.3mb 60f 60f
7:50 4ft 10s 5s 22 25 mph 1017mb 60f 61f
6:50 4ft 10s 5s 22 27 mph 1016.4mb 59f 61f
5:50 3.5ft 10s 5s 22 27 mph 1015.7mb 59f 60f
4:50 3.5ft 10s 5s 20 25 mph 1015.5mb 59f 60f
3:50 3.5ft 9s 5s 20 25 mph 1015.7mb 59f 61f
2:50 4ft 14s 5s 20 22 mph 1015.7mb 59f 61f
1:50 4.5ft 9s 5s 18 22 mph 1015.7mb 60f 61f
12:50 4.5ft 9s 5s 20 25 mph 1015.8mb 60f 61f
Sáb 08/27 11:50 4.5ft 9s 5s 20 25 mph 1015.8mb 60f 61f
10:50 4.5ft 10s 5s 22 27 mph 1015.6mb 60f 62f
9:50 4.5ft 9s 5s 22 25 mph 1015.4mb 61f 62f
8:50 4ft 14s 5s 20 22 mph 1015.2mb 61f 62f
7:50 4ft 10s 5s 20 25 mph 1014.8mb 60f 62f
6:50 4.5ft 9s 6s 20 25 mph 1014.7mb 60f 62f
5:50 3.5ft 9s 5s 20 25 mph 1015mb 60f 62f
4:50 4ft 10s 6s 18 22 mph 1015.4mb 60f 62f
3:50 3.5ft 14s 6s 13 18 mph 1015.9mb 59f 61f
2:50 3.5ft 11s 6s 13 16 mph 1016.4mb 59f 61f
1:50 3ft 10s 5s 13 16 mph 1016.8mb 59f 61f
12:50 3.5ft 15s 6s 13 18 mph 1016.5mb 59f 61f
11:50 3.5ft 9s 5s 13 16 mph 1016.8mb 59f 61f
10:50 3.5ft 15s 6s 13 16 mph 1017mb 59f 61f
9:50 3.5ft 9s 6s 13 18 mph 1016.5mb 59f 61f
8:50 3.5ft 14s 6s 16 18 mph 1016.2mb 59f 61f
7:50 3.5ft 15s 6s 13 18 mph 1015.7mb 60f 61f
6:50 3.5ft 15s 6s 11 16 mph 1015.1mb 60f 61f
5:50 3.5ft 14s 6s 16 18 mph 1014.7mb 60f 61f
4:50 3.5ft 14s 5s 16 18 mph 1014.5mb 60f 61f
3:50 3.5ft 14s 5s 18 20 mph 1014.4mb 60f 61f
2:50 3.5ft 15s 5s 16 20 mph 1014.2mb 60f 61f
1:50 3.5ft 14s 6s 18 20 mph 1014.4mb 60f 61f
12:50 3.5ft 15s 5s 18 20 mph 1014.6mb 60f 61f